Regional Weather Roundup
Issued by NWS

Home | Current Version | Previous Version | Text Only | Print | Product List | Glossary Off
Versions: 1 2 3 4 5 6 7 8 9 10 11 12 13 14 15 16 17 18 19 20 21 22 23 24 25 26 27 28 29 30 31 32 33 34 35 36 37 38 39 40 41 42 43 44 45 46 47 48 49 50

000
ASUS43 KBIS 240510
RWRND

NORTH DAKOTA REGIONAL WEATHER ROUNDUP
NATIONAL WEATHER SERVICE BISMARCK ND
1200 AM CDT SAT JUN 24 2017

NOTE: "FAIR" INDICATES FEW OR NO CLOUDS BELOW 12,000 FEET WITH NO
SIGNIFICANT WEATHER AND/OR OBSTRUCTIONS TO VISIBILITY.


NDZ001>003-009>011-017-240600-
NORTHWEST NORTH DAKOTA

CITY           SKY/WX    TMP DP  RH WIND       PRES   REMARKS
WILLISTON      CLOUDY    54  38  54 N21G28    30.16R
MINOT          CLOUDY    51  43  74 NW14      30.10R
MINOT AFB      LGT RAIN  49  45  87 NW14G30   30.08R
$$

NDZ018>021-031>035-040>046-240600-
SOUTHWEST NORTH DAKOTA

CITY           SKY/WX    TMP DP  RH WIND       PRES   REMARKS
BISMARCK       PTCLDY    54  38  54 W5        30.11S
DICKINSON      CLOUDY    47  32  56 W5        30.13F
GARRISON         N/A     53  37  54 W10       30.08F
HETTINGER ARPT CLEAR     41  30  65 CALM      30.19S
$$

NDZ004>008-012>016-024-026-027-054-240600-
NORTHEAST NORTH DAKOTA

CITY           SKY/WX    TMP DP  RH WIND       PRES   REMARKS
GRAND FORKS    CLOUDY    56  43  61 NW12      29.97F
GRND FRKS AFB  MOCLDY    53  40  62 NW8       29.98F
DEVILS LAKE    CLEAR     49  41  74 W9        30.03S
$$

NDZ022-023-025-028>030-036>039-047>053-240600-
SOUTHEAST NORTH DAKOTA

CITY           SKY/WX    TMP DP  RH WIND       PRES   REMARKS
FARGO          CLEAR     53  40  61 W9        30.00F
JAMESTOWN      CLEAR     49  40  71 W8        30.05S
$$




USA.gov is the U.S. government's official web portal to all federal, state and local government web resources and services.